Location: Unspecified
(0.0000°N, 0.0000°E)
Time: 05:04:01
(UTC+00:00)

A-11 Canister half - Pass Details

Date: 22 April 2026
Orbit: 1523 x 1685 km, 47.3° (Epoch: 13 May)

Event Time Altitude Azimuth Distance (km) Brightness Sun altitude
Rises 17:33:59 0° 185° (S) 4,694 11.5 6.0°
Reaches altitude 10° 17:39:54 10° 156° (SSE) 3,739 10.7 4.5°
Maximum altitude 17:43:16 12° 135° (SE) 3,584 10.5 3.7°
Drops below altitude 10° 17:46:38 10° 113° (ESE) 3,778 10.4 2.9°
Sets 17:52:37 0° 86° (E) 4,803 11.0 1.4°
